Time,TemperatureF,DewpointF,PressureIn,WindDirection,WindDirectionDegrees,WindSpeedMPH,WindSpeedGustMPH,Humidity,HourlyPrecipIn,Conditions,Clouds,dailyrainin,SoftwareType,DateUTC
2013-02-19 00:01:00,47.1,32.6,30.14,North,349,3.5,3.5,57,0.00,CLR,,0.00,WeatherDisplay:10.37,2013-02-19 06:01:00,
2013-02-19 00:06:00,47.3,32.4,30.14,NNW,336,4.6,4.6,56,0.00,CLR,,0.00,WeatherDisplay:10.37,2013-02-19 06:06:00,
2013-02-19 00:11:00,47.6,32.7,30.14,NNW,342,4.6,4.6,56,0.00,CLR,,0.00,WeatherDisplay:10.37,2013-02-19 06:11:00,
2013-02-19 00:16:00,47.7,33.2,30.14,North,353,4.0,4.0,57,0.00,CLR,,0.00,WeatherDisplay:10.37,2013-02-19 06:16:00,
2013-02-19 00:21:00,47.6,33.5,30.14,NNW,346,3.5,3.5,58,0.00,CLR,,0.00,WeatherDisplay:10.37,2013-02-19 06:21:00,
2013-02-19 00:26:00,47.4,32.9,30.14,North,349,3.5,3.5,57,0.00,CLR,,0.00,WeatherDisplay:10.37,2013-02-19 06:26:00,
2013-02-19 00:31:00,47.1,32.6,30.14,North,4,2.3,2.3,57,0.00,CLR,,0.00,WeatherDisplay:10.37,2013-02-19 06:31:00,
2013-02-19 00:36:00,46.9,31.6,30.14,North,6,2.3,2.3,55,0.00,CLR,,0.00,WeatherDisplay:10.37,2013-02-19 06:36:00,
2013-02-19 00:41:00,46.8,32.8,30.14,NNE,30,3.0,3.0,58,0.00,CLR,,0.00,WeatherDisplay:10.37,2013-02-19 06:41:00,
2013-02-19 00:46:00,46.7,31.8,30.14,North,352,2.3,2.3,56,0.00,CLR,,0.00,WeatherDisplay:10.37,2013-02-19 06:46:00,
2013-02-19 00:51:00,46.5,32.1,30.14,NNW,342,3.5,3.5,57,0.00,CLR,,0.00,WeatherDisplay:10.37,2013-02-19 06:51:00,
2013-02-19 00:56:00,46.5,32.5,30.14,NNE,20,2.3,2.3,58,0.00,CLR,,0.00,WeatherDisplay:10.37,2013-02-19 06:56:00,
2013-02-19 01:01:00,46.6,31.7,30.14,North,357,2.3,2.3,56,0.00,CLR,,0.00,WeatherDisplay:10.37,2013-02-19 07:01:00,
2013-02-19 01:06:00,46.7,30.9,30.14,NNE,15,3.5,3.5,54,0.00,CLR,,0.00,WeatherDisplay:10.37,2013-02-19 07:06:00,
2013-02-19 01:11:00,46.8,31.5,30.13,NNE,18,3.5,3.5,55,0.00,CLR,,0.00,WeatherDisplay:10.37,2013-02-19 07:11:00,
2013-02-19 01:16:00,46.8,31.0,30.13,NNE,27,3.5,3.5,54,0.00,CLR,,0.00,WeatherDisplay:10.37,2013-02-19 07:16:00,
2013-02-19 01:21:00,46.5,30.7,30.13,NNE,25,2.3,2.3,54,0.00,CLR,,0.00,WeatherDisplay:10.37,2013-02-19 07:21:00,
2013-02-19 01:26:00,46.3,30.1,30.13,NNE,28,1.2,0.0,53,0.00,CLR,,0.00,WeatherDisplay:10.37,2013-02-19 07:26:00,
2013-02-19 01:31:00,45.9,29.7,30.13,NNE,30,0.0,0.0,53,0.00,CLR,,0.00,WeatherDisplay:10.37,2013-02-19 07:31:00,
2013-02-19 01:36:00,45.4,29.3,30.13,NNE,28,0.0,0.0,53,0.00,CLR,,0.00,WeatherDisplay:10.37,2013-02-19 07:36:00,
2013-02-19 01:41:00,44.7,30.4,30.13,South,169,1.2,0.0,57,0.00,CLR,,0.00,WeatherDisplay:10.37,2013-02-19 07:41:00,
2013-02-19 01:46:00,44.2,30.3,30.13,SSE,160,0.0,0.0,58,0.00,CLR,,0.00,WeatherDisplay:10.37,2013-02-19 07:46:00,
2013-02-19 01:51:00,44.1,29.8,30.13,SSE,160,0.0,0.0,57,0.00,CLR,,0.00,WeatherDisplay:10.37,2013-02-19 07:51:00,
2013-02-19 01:56:00,44.4,31.4,30.13,NE,38,4.6,4.6,60,0.00,CLR,,0.00,WeatherDisplay:10.37,2013-02-19 07:56:00,
2013-02-19 02:01:00,46.2,30.0,30.12,NNE,27,4.6,4.6,53,0.00,CLR,,0.00,WeatherDisplay:10.37,2013-02-19 08:01:00,
2013-02-19 02:07:00,47.0,29.8,30.12,NE,52,5.8,5.8,51,0.00,CLR,,0.00,WeatherDisplay:10.37,2013-02-19 08:07:00,
2013-02-19 02:12:00,47.3,29.1,30.13,NNE,14,4.6,4.6,49,0.00,CLR,,0.00,WeatherDisplay:10.37,2013-02-19 08:12:00,
2013-02-19 02:17:00,47.7,28.9,30.12,NE,41,6.9,6.9,48,0.00,CLR,,0.00,WeatherDisplay:10.37,2013-02-19 08:17:00,
2013-02-19 02:22:00,47.9,28.6,30.13,NE,56,6.0,6.0,47,0.00,CLR,,0.00,WeatherDisplay:10.37,2013-02-19 08:22:00,
2013-02-19 02:27:00,48.1,29.3,30.13,NE,53,8.1,8.1,48,0.00,CLR,,0.00,WeatherDisplay:10.37,2013-02-19 08:27:00,
2013-02-19 02:32:00,48.3,29.0,30.13,NE,50,9.2,9.2,47,0.00,CLR,,0.00,WeatherDisplay:10.37,2013-02-19 08:32:00,
2013-02-19 02:37:00,48.2,28.9,30.13,NE,45,11.5,11.5,47,0.00,CLR,,0.00,WeatherDisplay:10.37,2013-02-19 08:37:00,
2013-02-19 02:42:00,48.1,28.3,30.13,NE,56,12.7,12.7,46,0.00,CLR,,0.00,WeatherDisplay:10.37,2013-02-19 08:42:00,
2013-02-19 02:47:00,47.9,29.6,30.13,NE,50,10.4,10.4,49,0.00,CLR,,0.00,WeatherDisplay:10.37,2013-02-19 08:47:00,
2013-02-19 02:52:00,47.8,30.5,30.13,NE,49,10.4,10.4,51,0.00,CLR,,0.00,WeatherDisplay:10.37,2013-02-19 08:52:00,
2013-02-19 02:57:00,47.5,29.3,30.14,NE,44,8.1,8.1,49,0.00,CLR,,0.00,WeatherDisplay:10.37,2013-02-19 08:57:00,
2013-02-19 03:02:00,47.2,29.0,30.14,NE,36,5.8,5.8,49,0.00,CLR,,0.00,WeatherDisplay:10.37,2013-02-19 09:02:00,
2013-02-19 03:07:00,47.0,29.3,30.14,NE,37,3.5,3.6,50,0.00,CLR,,0.00,WeatherDisplay:10.37,2013-02-19 09:07:00,
2013-02-19 03:12:00,46.7,28.5,30.14,NNW,345,2.3,2.3,49,0.00,CLR,,0.00,WeatherDisplay:10.37,2013-02-19 09:12:00,
2013-02-19 03:17:00,46.5,28.3,30.15,NNW,342,3.5,3.5,49,0.00,CLR,,0.00,WeatherDisplay:10.37,2013-02-19 09:17:00,
2013-02-19 03:22:00,46.3,28.2,30.15,North,6,3.5,3.5,49,0.00,CLR,,0.00,WeatherDisplay:10.37,2013-02-19 09:22:00,
2013-02-19 03:27:00,46.2,28.6,30.15,NNW,334,2.3,2.3,50,0.00,CLR,,0.00,WeatherDisplay:10.37,2013-02-19 09:27:00,
2013-02-19 03:32:00,46.0,28.9,30.15,NNW,330,2.3,2.3,51,0.00,CLR,,0.00,WeatherDisplay:10.37,2013-02-19 09:32:00,
2013-02-19 03:37:00,45.9,28.3,30.16,NNW,328,2.3,2.3,50,0.00,CLR,,0.00,WeatherDisplay:10.37,2013-02-19 09:37:00,
2013-02-19 03:42:00,45.7,29.1,30.16,North,7,2.3,2.3,52,0.00,CLR,,0.00,WeatherDisplay:10.37,2013-02-19 09:42:00,
2013-02-19 03:47:00,45.5,28.9,30.16,NNW,342,3.5,3.5,52,0.00,CLR,,0.00,WeatherDisplay:10.37,2013-02-19 09:47:00,
2013-02-19 03:52:00,45.4,28.3,30.16,North,6,3.5,3.5,51,0.00,CLR,,0.00,WeatherDisplay:10.37,2013-02-19 09:52:00,
2013-02-19 03:57:00,45.2,29.1,30.16,NNE,22,3.5,3.5,53,0.00,CLR,,0.00,WeatherDisplay:10.37,2013-02-19 09:57:00,
2013-02-19 04:02:00,45.1,28.0,30.17,NE,39,3.5,3.5,51,0.00,CLR,,0.00,WeatherDisplay:10.37,2013-02-19 10:02:00,
2013-02-19 04:07:00,45.3,29.2,30.17,NE,44,4.0,4.0,53,0.00,CLR,,0.00,WeatherDisplay:10.37,2013-02-19 10:07:00,
2013-02-19 04:12:00,45.5,28.4,30.17,NNE,32,3.5,3.5,51,0.00,CLR,,0.00,WeatherDisplay:10.37,2013-02-19 10:12:00,
2013-02-19 04:17:00,45.5,27.9,30.17,NE,36,2.3,2.3,50,0.00,CLR,,0.00,WeatherDisplay:10.37,2013-02-19 10:17:00,
2013-02-19 04:22:00,45.3,29.6,30.17,NE,52,2.3,2.3,54,0.00,CLR,,0.00,WeatherDisplay:10.37,2013-02-19 10:22:00,
2013-02-19 04:27:00,45.2,28.6,30.17,NE,41,3.5,3.6,52,0.00,CLR,,0.00,WeatherDisplay:10.37,2013-02-19 10:27:00,
2013-02-19 04:32:00,44.9,28.8,30.17,NNE,30,4.0,4.0,53,0.00,CLR,,0.00,WeatherDisplay:10.37,2013-02-19 10:32:00,
2013-02-19 04:37:00,44.7,29.1,30.17,North,7,3.5,3.5,54,0.00,CLR,,0.00,WeatherDisplay:10.37,2013-02-19 10:37:00,
2013-02-19 04:42:00,44.6,29.0,30.18,NNE,14,3.5,3.5,54,0.00,CLR,,0.00,WeatherDisplay:10.37,2013-02-19 10:42:00,
2013-02-19 04:47:00,44.2,29.5,30.18,NW,323,2.3,2.3,56,0.00,CLR,,0.00,WeatherDisplay:10.37,2013-02-19 10:47:00,
2013-02-19 04:52:00,43.7,29.5,30.17,NW,319,1.0,1.0,57,0.00,CLR,,0.00,WeatherDisplay:10.37,2013-02-19 10:52:00,
2013-02-19 04:57:00,43.3,30.7,30.17,NE,49,0.0,0.0,61,0.00,CLR,,0.00,WeatherDisplay:10.37,2013-02-19 10:57:00,
2013-02-19 05:02:00,43.1,29.7,30.18,NNE,27,1.2,1.2,59,0.00,CLR,,0.00,WeatherDisplay:10.37,2013-02-19 11:02:00,
2013-02-19 05:07:00,43.1,28.9,30.18,NNE,15,2.3,2.3,57,0.00,CLR,,0.00,WeatherDisplay:10.37,2013-02-19 11:07:00,
2013-02-19 05:12:00,43.1,30.1,30.18,NNW,342,0.0,0.0,60,0.00,CLR,,0.00,WeatherDisplay:10.37,2013-02-19 11:12:00,
2013-02-19 05:17:00,42.5,30.8,30.18,NNW,329,0.0,0.0,63,0.00,CLR,,0.00,WeatherDisplay:10.37,2013-02-19 11:17:00,
2013-02-19 05:22:00,42.3,31.0,30.19,NW,319,1.2,1.2,64,0.00,CLR,,0.00,WeatherDisplay:10.37,2013-02-19 11:22:00,
2013-02-19 05:27:00,42.3,30.2,30.19,NW,316,0.0,0.0,62,0.00,CLR,,0.00,WeatherDisplay:10.37,2013-02-19 11:27:00,
2013-02-19 05:32:00,42.0,30.7,30.19,NW,316,0.0,0.0,64,0.00,CLR,,0.00,WeatherDisplay:10.37,2013-02-19 11:32:00,
2013-02-19 05:37:00,41.6,30.3,30.19,SW,224,0.0,0.0,64,0.00,CLR,,0.00,WeatherDisplay:10.37,2013-02-19 11:37:00,
2013-02-19 05:42:00,41.2,30.7,30.20,West,273,0.0,0.0,66,0.00,CLR,,0.00,WeatherDisplay:10.37,2013-02-19 11:42:00,
2013-02-19 05:47:00,41.1,30.6,30.20,West,273,0.0,0.0,66,0.00,CLR,,0.00,WeatherDisplay:10.37,2013-02-19 11:47:00,
2013-02-19 05:52:00,40.8,30.3,30.20,SW,229,0.0,0.0,66,0.00,CLR,,0.00,WeatherDisplay:10.37,2013-02-19 11:52:00,
2013-02-19 05:57:00,40.6,30.1,30.21,SW,232,1.2,0.0,66,0.00,CLR,,0.00,WeatherDisplay:10.37,2013-02-19 11:57:00,
2013-02-19 06:02:00,40.4,29.6,30.22,SW,224,1.2,0.0,65,0.00,CLR,,0.00,WeatherDisplay:10.37,2013-02-19 12:02:00,
2013-02-19 06:07:00,40.1,29.6,30.22,SW,224,0.0,0.0,66,0.00,CLR,,0.00,WeatherDisplay:10.37,2013-02-19 12:07:00,
2013-02-19 06:12:00,39.9,29.8,30.22,SW,224,0.0,0.0,67,0.00,CLR,,0.00,WeatherDisplay:10.37,2013-02-19 12:12:00,
2013-02-19 06:17:00,40.0,30.3,30.22,NW,324,1.2,1.2,68,0.00,CLR,,0.00,WeatherDisplay:10.37,2013-02-19 12:17:00,
2013-02-19 06:22:00,40.4,30.3,30.23,West,263,1.0,1.0,67,0.00,CLR,,0.00,WeatherDisplay:10.37,2013-02-19 12:22:00,
2013-02-19 06:27:00,40.3,30.2,30.24,WSW,240,1.2,0.0,67,0.00,CLR,,0.00,WeatherDisplay:10.37,2013-02-19 12:27:00,
2013-02-19 06:32:00,40.0,29.9,30.24,SW,226,0.0,0.0,67,0.00,CLR,,0.00,WeatherDisplay:10.37,2013-02-19 12:32:00,
2013-02-19 06:37:00,39.7,29.6,30.24,SW,226,0.0,0.0,67,0.00,CLR,,0.00,WeatherDisplay:10.37,2013-02-19 12:37:00,
2013-02-19 06:43:00,39.6,29.9,30.24,NNW,346,2.3,2.3,68,0.00,CLR,,0.00,WeatherDisplay:10.37,2013-02-19 12:43:00,
2013-02-19 06:48:00,40.0,29.6,30.25,WNW,300,1.2,1.2,66,0.00,CLR,,0.00,WeatherDisplay:10.37,2013-02-19 12:48:00,
2013-02-19 06:53:00,39.9,30.5,30.25,WNW,302,0.0,0.0,69,0.00,CLR,,0.00,WeatherDisplay:10.37,2013-02-19 12:53:00,
2013-02-19 06:58:00,39.5,29.4,30.26,WSW,240,1.2,0.0,67,0.00,CLR,,0.00,WeatherDisplay:10.37,2013-02-19 12:58:00,
2013-02-19 07:03:00,39.3,29.6,30.26,WSW,240,0.0,0.0,68,0.00,CLR,,0.00,WeatherDisplay:10.37,2013-02-19 13:03:00,
2013-02-19 07:08:00,38.8,29.5,30.26,SE,145,0.0,0.0,69,0.00,CLR,,0.00,WeatherDisplay:10.37,2013-02-19 13:08:00,
2013-02-19 07:13:00,38.3,29.0,30.26,SE,145,0.0,0.0,69,0.00,CLR,,0.00,WeatherDisplay:10.37,2013-02-19 13:13:00,
2013-02-19 07:18:00,38.2,29.6,30.27,SW,218,0.0,0.0,71,0.00,CLR,,0.00,WeatherDisplay:10.37,2013-02-19 13:18:00,
2013-02-19 07:23:00,37.9,29.7,30.27,South,180,0.0,0.0,72,0.00,CLR,,0.00,WeatherDisplay:10.37,2013-02-19 13:23:00,
2013-02-19 07:28:00,37.7,29.1,30.27,ENE,61,1.0,0.0,71,0.00,CLR,,0.00,WeatherDisplay:10.37,2013-02-19 13:28:00,
2013-02-19 07:33:00,38.3,30.4,30.27,NE,35,1.2,1.2,73,0.00,CLR,,0.00,WeatherDisplay:10.37,2013-02-19 13:33:00,
2013-02-19 07:38:00,38.7,30.1,30.28,NE,52,1.2,0.0,71,0.00,CLR,,0.00,WeatherDisplay:10.37,2013-02-19 13:38:00,
2013-02-19 07:43:00,38.7,29.4,30.28,NE,52,0.0,0.0,69,0.00,CLR,,0.00,WeatherDisplay:10.37,2013-02-19 13:43:00,
2013-02-19 07:48:00,38.6,29.3,30.28,NE,53,0.0,0.0,69,0.00,CLR,,0.00,WeatherDisplay:10.37,2013-02-19 13:48:00,
2013-02-19 07:53:00,38.7,29.8,30.29,SW,219,2.3,2.3,70,0.00,CLR,,0.00,WeatherDisplay:10.37,2013-02-19 13:53:00,
2013-02-19 07:58:00,38.7,30.4,30.29,WSW,238,1.2,0.0,72,0.00,CLR,,0.00,WeatherDisplay:10.37,2013-02-19 13:58:00,
2013-02-19 08:03:00,38.7,30.1,30.30,SW,224,0.0,0.1,71,0.00,CLR,,0.00,WeatherDisplay:10.37,2013-02-19 14:03:00,
2013-02-19 08:08:00,38.9,29.6,30.30,SW,224,0.0,0.0,69,0.00,CLR,,0.00,WeatherDisplay:10.37,2013-02-19 14:08:00,
2013-02-19 08:13:00,39.2,29.9,30.31,SW,224,0.0,0.0,69,0.00,CLR,,0.00,WeatherDisplay:10.37,2013-02-19 14:13:00,
2013-02-19 08:18:00,39.6,29.9,30.31,SW,224,0.0,0.0,68,0.00,CLR,,0.00,WeatherDisplay:10.37,2013-02-19 14:18:00,
2013-02-19 08:23:00,40.5,30.0,30.31,SW,224,0.0,0.0,66,0.00,CLR,,0.00,WeatherDisplay:10.37,2013-02-19 14:23:00,
2013-02-19 08:28:00,41.0,29.7,30.31,SW,224,0.0,0.0,64,0.00,CLR,,0.00,WeatherDisplay:10.37,2013-02-19 14:28:00,
2013-02-19 08:33:00,41.9,30.2,30.31,SW,224,0.0,0.0,63,0.00,CLR,,0.00,WeatherDisplay:10.37,2013-02-19 14:33:00,
2013-02-19 08:38:00,42.7,30.6,30.31,NE,40,1.2,1.2,62,0.00,CLR,,0.00,WeatherDisplay:10.37,2013-02-19 14:38:00,
2013-02-19 08:43:00,42.9,30.8,30.31,ENE,63,1.2,0.0,62,0.00,CLR,,0.00,WeatherDisplay:10.37,2013-02-19 14:43:00,
2013-02-19 08:48:00,43.2,31.1,30.31,NE,53,2.3,2.3,62,0.00,CLR,,0.00,WeatherDisplay:10.37,2013-02-19 14:48:00,
2013-02-19 08:53:00,43.7,31.1,30.31,NE,56,1.2,1.2,61,0.00,CLR,,0.00,WeatherDisplay:10.37,2013-02-19 14:53:00,
2013-02-19 08:58:00,44.2,31.6,30.31,ENE,70,0.0,0.8,61,0.00,CLR,,0.00,WeatherDisplay:10.37,2013-02-19 14:58:00,
2013-02-19 09:03:00,44.6,30.7,30.31,ESE,113,4.6,4.6,58,0.00,CLR,,0.00,WeatherDisplay:10.37,2013-02-19 15:03:00,
2013-02-19 09:08:00,45.6,31.2,30.31,South,177,2.3,2.3,57,0.00,CLR,,0.00,WeatherDisplay:10.37,2013-02-19 15:08:00,
2013-02-19 09:13:00,46.6,28.9,30.32,SE,129,5.8,5.8,50,0.00,CLR,,0.00,WeatherDisplay:10.37,2013-02-19 15:13:00,
2013-02-19 09:18:00,47.1,28.4,30.31,SSE,160,4.6,4.6,48,0.00,CLR,,0.00,WeatherDisplay:10.37,2013-02-19 15:18:00,
2013-02-19 09:23:00,47.6,27.8,30.31,ESE,115,5.8,5.8,46,0.00,CLR,,0.00,WeatherDisplay:10.37,2013-02-19 15:23:00,
2013-02-19 09:28:00,48.1,27.7,30.31,ENE,72,5.8,5.8,45,0.00,CLR,,0.00,WeatherDisplay:10.37,2013-02-19 15:28:00,
2013-02-19 09:33:00,48.4,28.0,30.32,ENE,70,3.5,3.5,45,0.00,CLR,,0.00,WeatherDisplay:10.37,2013-02-19 15:33:00,
2013-02-19 09:38:00,48.3,26.2,30.32,ENE,67,8.1,8.1,42,0.00,CLR,,0.00,WeatherDisplay:10.37,2013-02-19 15:38:00,
2013-02-19 09:43:00,47.8,28.0,30.31,ENE,66,10.4,10.4,46,0.00,CLR,,0.00,WeatherDisplay:10.37,2013-02-19 15:43:00,
2013-02-19 09:48:00,47.8,25.8,30.31,ESE,105,8.1,8.1,42,0.00,CLR,,0.00,WeatherDisplay:10.37,2013-02-19 15:48:00,
2013-02-19 09:53:00,48.5,26.4,30.31,East,101,4.6,4.6,42,0.00,CLR,,0.00,WeatherDisplay:10.37,2013-02-19 15:53:00,
2013-02-19 09:58:00,48.7,26.0,30.31,ENE,74,3.5,3.5,41,0.00,CLR,,0.00,WeatherDisplay:10.37,2013-02-19 15:58:00,
2013-02-19 10:03:00,49.3,24.7,30.31,East,79,6.9,6.9,38,0.00,CLR,,0.00,WeatherDisplay:10.37,2013-02-19 16:03:00,
2013-02-19 10:08:00,50.0,24.7,30.31,ESE,107,3.5,3.5,37,0.00,CLR,,0.00,WeatherDisplay:10.37,2013-02-19 16:08:00,
2013-02-19 10:13:00,50.1,24.8,30.31,ENE,61,5.8,5.8,37,0.00,CLR,,0.00,WeatherDisplay:10.37,2013-02-19 16:13:00,
2013-02-19 10:18:00,49.9,24.0,30.31,ESE,110,12.7,12.7,36,0.00,CLR,,0.00,WeatherDisplay:10.37,2013-02-19 16:18:00,
2013-02-19 10:23:00,50.2,25.5,30.30,ENE,68,10.4,10.4,38,0.00,CLR,,0.00,WeatherDisplay:10.37,2013-02-19 16:23:00,
2013-02-19 10:28:00,50.2,24.9,30.30,ENE,72,6.9,6.9,37,0.00,CLR,,0.00,WeatherDisplay:10.37,2013-02-19 16:28:00,
2013-02-19 10:33:00,50.6,23.9,30.30,East,82,6.0,6.0,35,0.00,CLR,,0.00,WeatherDisplay:10.37,2013-02-19 16:33:00,
2013-02-19 10:38:00,50.9,24.2,30.30,ESE,109,10.4,10.4,35,0.00,CLR,,0.00,WeatherDisplay:10.37,2013-02-19 16:38:00,
2013-02-19 10:43:00,51.2,23.8,30.31,ENE,74,10.4,10.4,34,0.00,CLR,,0.00,WeatherDisplay:10.37,2013-02-19 16:43:00,
2013-02-19 10:48:00,51.5,23.3,30.31,ENE,74,9.2,9.2,33,0.00,CLR,,0.00,WeatherDisplay:10.37,2013-02-19 16:48:00,
2013-02-19 10:53:00,51.6,25.5,30.31,ENE,76,6.9,6.9,36,0.00,CLR,,0.00,WeatherDisplay:10.37,2013-02-19 16:53:00,
2013-02-19 10:58:00,52.1,21.6,30.32,ENE,70,8.1,8.1,30,0.00,CLR,,0.00,WeatherDisplay:10.37,2013-02-19 16:58:00,
2013-02-19 11:03:00,52.0,23.8,30.31,ENE,77,10.4,10.4,33,0.00,CLR,,0.00,WeatherDisplay:10.37,2013-02-19 17:03:00,
2013-02-19 11:08:00,51.8,22.8,30.31,ENE,67,12.7,12.7,32,0.00,CLR,,0.00,WeatherDisplay:10.37,2013-02-19 17:08:00,
2013-02-19 11:13:00,52.4,21.8,30.31,NNE,27,6.0,6.0,30,0.00,CLR,,0.00,WeatherDisplay:10.37,2013-02-19 17:13:00,
2013-02-19 11:18:00,53.4,21.9,30.31,East,94,9.2,9.2,29,0.00,CLR,,0.00,WeatherDisplay:10.37,2013-02-19 17:18:00,
2013-02-19 11:23:00,53.7,23.7,30.31,East,82,11.5,11.5,31,0.00,CLR,,0.00,WeatherDisplay:10.37,2013-02-19 17:23:00,
2013-02-19 11:28:00,53.6,23.7,30.31,ENE,71,4.6,4.6,31,0.00,CLR,,0.00,WeatherDisplay:10.37,2013-02-19 17:28:00,
2013-02-19 11:33:00,54.0,21.6,30.31,ESE,122,9.2,9.2,28,0.00,CLR,,0.00,WeatherDisplay:10.37,2013-02-19 17:33:00,
2013-02-19 11:38:00,54.3,21.0,30.31,East,82,8.1,8.1,27,0.00,CLR,,0.00,WeatherDisplay:10.37,2013-02-19 17:38:00,
2013-02-19 11:43:00,53.9,23.1,30.30,ENE,71,11.5,11.5,30,0.00,CLR,,0.00,WeatherDisplay:10.37,2013-02-19 17:43:00,
2013-02-19 11:48:00,54.4,21.9,30.30,East,87,6.9,6.9,28,0.00,CLR,,0.00,WeatherDisplay:10.37,2013-02-19 17:48:00,
2013-02-19 11:53:00,55.1,22.5,30.30,ESE,102,5.8,5.8,28,0.00,CLR,,0.00,WeatherDisplay:10.37,2013-02-19 17:53:00,
2013-02-19 11:58:00,55.5,22.9,30.29,NE,53,10.4,10.4,28,0.00,CLR,,0.00,WeatherDisplay:10.37,2013-02-19 17:58:00,
2013-02-19 12:03:00,56.6,22.1,30.30,SE,128,4.6,4.6,26,0.00,CLR,,0.00,WeatherDisplay:10.37,2013-02-19 18:03:00,
2013-02-19 12:08:00,56.9,22.3,30.29,ENE,63,6.9,6.9,26,0.00,CLR,,0.00,WeatherDisplay:10.37,2013-02-19 18:08:00,
2013-02-19 12:13:00,56.4,21.9,30.29,ESE,120,9.2,9.2,26,0.00,CLR,,0.00,WeatherDisplay:10.37,2013-02-19 18:13:00,
2013-02-19 12:18:00,56.5,22.0,30.28,ENE,58,6.9,6.9,26,0.00,CLR,,0.00,WeatherDisplay:10.37,2013-02-19 18:18:00,
2013-02-19 12:23:00,56.8,22.2,30.28,NE,53,4.6,4.6,26,0.00,CLR,,0.00,WeatherDisplay:10.37,2013-02-19 18:23:00,
2013-02-19 12:28:00,56.9,20.4,30.28,SE,129,8.1,8.1,24,0.00,CLR,,0.00,WeatherDisplay:10.37,2013-02-19 18:28:00,
2013-02-19 12:33:00,57.2,21.6,30.28,ENE,71,9.2,9.2,25,0.00,CLR,,0.00,WeatherDisplay:10.37,2013-02-19 18:33:00,
2013-02-19 12:38:00,57.6,21.0,30.28,ENE,71,6.9,6.9,24,0.00,CLR,,0.00,WeatherDisplay:10.37,2013-02-19 18:38:00,
2013-02-19 12:43:00,58.0,20.4,30.27,East,99,8.1,8.1,23,0.00,CLR,,0.00,WeatherDisplay:10.37,2013-02-19 18:43:00,
2013-02-19 12:48:00,57.3,20.8,30.27,ENE,71,9.2,9.2,24,0.00,CLR,,0.00,WeatherDisplay:10.37,2013-02-19 18:48:00,
2013-02-19 12:53:00,57.7,22.1,30.26,ESE,123,11.5,11.5,25,0.00,CLR,,0.00,WeatherDisplay:10.37,2013-02-19 18:53:00,
2013-02-19 12:58:00,58.1,20.4,30.26,SE,134,5.0,5.0,23,0.00,CLR,,0.00,WeatherDisplay:10.37,2013-02-19 18:58:00,
2013-02-19 13:03:00,58.4,21.7,30.25,ENE,71,8.0,8.0,24,0.00,CLR,,0.00,WeatherDisplay:10.37,2013-02-19 19:03:00,
2013-02-19 13:08:00,57.5,19.9,30.26,ESE,119,10.4,10.4,23,0.00,CLR,,0.00,WeatherDisplay:10.37,2013-02-19 19:08:00,
2013-02-19 13:13:00,58.2,20.5,30.25,SSE,150,6.0,6.0,23,0.00,CLR,,0.00,WeatherDisplay:10.37,2013-02-19 19:13:00,
2013-02-19 13:18:00,58.8,20.0,30.25,East,91,4.6,4.6,22,0.00,CLR,,0.00,WeatherDisplay:10.37,2013-02-19 19:18:00,
2013-02-19 13:23:00,59.1,18.0,30.24,ENE,77,8.1,8.1,20,0.00,CLR,,0.00,WeatherDisplay:10.37,2013-02-19 19:23:00,
2013-02-19 13:28:00,59.8,20.8,30.24,East,79,6.9,6.9,22,0.00,CLR,,0.00,WeatherDisplay:10.37,2013-02-19 19:28:00,
2013-02-19 13:33:00,59.6,18.4,30.24,ENE,70,6.9,6.9,20,0.00,CLR,,0.00,WeatherDisplay:10.37,2013-02-19 19:33:00,
2013-02-19 13:38:00,59.4,18.3,30.24,ESE,120,8.1,8.1,20,0.00,CLR,,0.00,WeatherDisplay:10.37,2013-02-19 19:38:00,
2013-02-19 13:43:00,59.7,18.5,30.23,East,82,5.8,5.8,20,0.00,CLR,,0.00,WeatherDisplay:10.37,2013-02-19 19:43:00,
2013-02-19 13:48:00,60.1,16.4,30.23,South,173,11.5,11.5,18,0.00,CLR,,0.00,WeatherDisplay:10.37,2013-02-19 19:48:00,
2013-02-19 13:53:00,60.5,18.0,30.22,NNE,25,5.8,5.8,19,0.00,CLR,,0.00,WeatherDisplay:10.37,2013-02-19 19:53:00,
2013-02-19 13:58:00,60.4,20.2,30.22,ENE,77,11.5,11.5,21,0.00,CLR,,0.00,WeatherDisplay:10.37,2013-02-19 19:58:00,
2013-02-19 14:03:00,59.7,16.1,30.21,ESE,114,9.2,9.2,18,0.00,CLR,,0.00,WeatherDisplay:10.37,2013-02-19 20:03:00,
2013-02-19 14:08:00,60.0,16.3,30.21,SE,133,8.1,8.1,18,0.00,CLR,,0.00,WeatherDisplay:10.37,2013-02-19 20:08:00,
2013-02-19 14:13:00,60.0,16.3,30.20,SSE,148,11.5,11.5,18,0.00,CLR,,0.00,WeatherDisplay:10.37,2013-02-19 20:13:00,
2013-02-19 14:18:00,60.3,16.6,30.20,ENE,67,4.6,4.6,18,0.00,CLR,,0.00,WeatherDisplay:10.37,2013-02-19 20:18:00,
2013-02-19 14:23:00,59.9,16.2,30.20,East,94,11.5,11.5,18,0.00,CLR,,0.00,WeatherDisplay:10.37,2013-02-19 20:23:00,
2013-02-19 14:28:00,59.9,18.7,30.19,ENE,77,4.6,4.6,20,0.00,CLR,,0.00,WeatherDisplay:10.37,2013-02-19 20:28:00,
2013-02-19 14:33:00,60.5,16.7,30.19,ENE,70,11.0,11.0,18,0.00,CLR,,0.00,WeatherDisplay:10.37,2013-02-19 20:33:00,
2013-02-19 14:38:00,60.5,16.7,30.19,ESE,111,6.9,6.9,18,0.00,CLR,,0.00,WeatherDisplay:10.37,2013-02-19 20:38:00,
2013-02-19 14:43:00,60.8,15.6,30.18,East,79,9.2,9.2,17,0.00,CLR,,0.00,WeatherDisplay:10.37,2013-02-19 20:43:00,
2013-02-19 14:48:00,60.6,16.8,30.18,ESE,111,11.5,11.5,18,0.00,CLR,,0.00,WeatherDisplay:10.37,2013-02-19 20:48:00,
2013-02-19 14:53:00,60.6,16.8,30.17,East,85,6.9,6.9,18,0.00,CLR,,0.00,WeatherDisplay:10.37,2013-02-19 20:53:00,
2013-02-19 14:58:00,61.0,15.8,30.17,ENE,68,4.6,4.6,17,0.00,CLR,,0.00,WeatherDisplay:10.37,2013-02-19 20:58:00,
2013-02-19 15:03:00,60.9,15.7,30.17,ENE,71,13.8,13.8,17,0.00,CLR,,0.00,WeatherDisplay:10.37,2013-02-19 21:03:00,
2013-02-19 15:08:00,61.1,15.9,30.16,East,83,8.1,8.1,17,0.00,CLR,,0.00,WeatherDisplay:10.37,2013-02-19 21:08:00,
2013-02-19 15:13:00,61.1,14.5,30.16,ENE,63,6.9,6.9,16,0.00,CLR,,0.00,WeatherDisplay:10.37,2013-02-19 21:13:00,
2013-02-19 15:18:00,60.6,14.1,30.16,SSE,168,6.9,6.9,16,0.00,CLR,,0.00,WeatherDisplay:10.37,2013-02-19 21:18:00,
2013-02-19 15:23:00,60.7,12.7,30.16,ENE,78,11.5,11.5,15,0.00,CLR,,0.00,WeatherDisplay:10.37,2013-02-19 21:23:00,
2013-02-19 15:28:00,60.9,14.3,30.16,East,97,6.9,6.9,16,0.00,CLR,,0.00,WeatherDisplay:10.37,2013-02-19 21:28:00,
2013-02-19 15:33:00,61.4,16.1,30.16,SE,125,7.0,7.0,17,0.00,CLR,,0.00,WeatherDisplay:10.37,2013-02-19 21:33:00,
2013-02-19 15:38:00,61.7,15.0,30.16,ESE,117,6.9,6.9,16,0.00,CLR,,0.00,WeatherDisplay:10.37,2013-02-19 21:38:00,
2013-02-19 15:43:00,61.7,13.5,30.16,ENE,77,15.0,15.0,15,0.00,CLR,,0.00,WeatherDisplay:10.37,2013-02-19 21:43:00,
2013-02-19 15:48:00,61.3,13.2,30.16,East,96,7.0,7.0,15,0.00,CLR,,0.00,WeatherDisplay:10.37,2013-02-19 21:48:00,
2013-02-19 15:53:00,61.0,15.8,30.16,NE,54,8.1,8.1,17,0.00,CLR,,0.00,WeatherDisplay:10.37,2013-02-19 21:53:00,
2013-02-19 15:58:00,61.3,14.7,30.16,ESE,108,4.6,4.6,16,0.00,CLR,,0.00,WeatherDisplay:10.37,2013-02-19 21:58:00,
2013-02-19 16:03:00,61.4,14.7,30.16,SE,134,4.6,4.6,16,0.00,CLR,,0.00,WeatherDisplay:10.37,2013-02-19 22:03:00,
2013-02-19 16:08:00,61.7,15.0,30.16,ESE,108,5.8,5.8,16,0.00,CLR,,0.00,WeatherDisplay:10.37,2013-02-19 22:08:00,
2013-02-19 16:13:00,61.9,15.1,30.15,East,94,11.5,11.5,16,0.00,CLR,,0.00,WeatherDisplay:10.37,2013-02-19 22:13:00,
2013-02-19 16:18:00,61.7,13.5,30.15,ESE,114,10.4,10.4,15,0.00,CLR,,0.00,WeatherDisplay:10.37,2013-02-19 22:18:00,
2013-02-19 16:23:00,61.5,13.4,30.15,ESE,122,11.5,11.5,15,0.00,CLR,,0.00,WeatherDisplay:10.37,2013-02-19 22:23:00,
2013-02-19 16:28:00,61.2,16.0,30.15,SE,136,8.1,8.1,17,0.00,CLR,,0.00,WeatherDisplay:10.37,2013-02-19 22:28:00,
2013-02-19 16:33:00,61.0,15.8,30.15,SSE,153,13.8,13.8,17,0.00,CLR,,0.00,WeatherDisplay:10.37,2013-02-19 22:33:00,
2013-02-19 16:38:00,60.6,15.5,30.15,South,174,9.2,9.2,17,0.00,CLR,,0.00,WeatherDisplay:10.37,2013-02-19 22:38:00,
2013-02-19 16:43:00,60.5,15.4,30.15,SE,145,9.2,9.2,17,0.00,CLR,,0.00,WeatherDisplay:10.37,2013-02-19 22:43:00,
2013-02-19 16:48:00,60.1,15.1,30.15,SE,128,10.4,10.4,17,0.00,CLR,,0.00,WeatherDisplay:10.37,2013-02-19 22:48:00,
2013-02-19 16:53:00,60.0,15.0,30.15,South,187,5.8,5.8,17,0.00,CLR,,0.00,WeatherDisplay:10.37,2013-02-19 22:53:00,
2013-02-19 16:58:00,60.1,16.4,30.14,SSE,163,11.5,11.5,18,0.00,CLR,,0.00,WeatherDisplay:10.37,2013-02-19 22:58:00,
2013-02-19 17:03:00,60.1,16.4,30.14,SE,125,9.2,9.2,18,0.00,CLR,,0.00,WeatherDisplay:10.37,2013-02-19 23:03:00,
2013-02-19 17:08:00,60.1,16.4,30.14,SE,135,3.5,3.5,18,0.00,CLR,,0.00,WeatherDisplay:10.37,2013-02-19 23:08:00,
2013-02-19 17:13:00,59.7,17.3,30.15,SSW,197,3.5,3.5,19,0.00,CLR,,0.00,WeatherDisplay:10.37,2013-02-19 23:13:00,
2013-02-19 17:18:00,59.3,15.7,30.15,SE,128,4.6,4.6,18,0.00,CLR,,0.00,WeatherDisplay:10.37,2013-02-19 23:18:00,
2013-02-19 17:23:00,59.0,16.7,30.16,WSW,249,5.8,5.8,19,0.00,CLR,,0.00,WeatherDisplay:10.37,2013-02-19 23:23:00,
2013-02-19 17:28:00,58.8,16.6,30.15,ESE,122,3.5,3.5,19,0.00,CLR,,0.00,WeatherDisplay:10.37,2013-02-19 23:28:00,
2013-02-19 17:33:00,58.6,17.6,30.14,ESE,110,8.1,8.1,20,0.00,CLR,,0.00,WeatherDisplay:10.37,2013-02-19 23:33:00,
2013-02-19 17:38:00,58.3,18.5,30.14,ENE,74,5.8,5.8,21,0.00,CLR,,0.00,WeatherDisplay:10.37,2013-02-19 23:38:00,
2013-02-19 17:43:00,58.2,18.4,30.14,ESE,113,3.5,3.5,21,0.00,CLR,,0.00,WeatherDisplay:10.37,2013-02-19 23:43:00,
2013-02-19 17:48:00,58.1,18.3,30.14,ENE,77,4.6,4.6,21,0.00,CLR,,0.00,WeatherDisplay:10.37,2013-02-19 23:48:00,
2013-02-19 17:53:00,58.0,18.2,30.14,SE,125,10.4,10.4,21,0.00,CLR,,0.00,WeatherDisplay:10.37,2013-02-19 23:53:00,
2013-02-19 17:58:00,57.8,18.1,30.14,East,80,3.0,3.0,21,0.00,CLR,,0.00,WeatherDisplay:10.37,2013-02-19 23:58:00,
2013-02-19 18:03:00,57.7,19.1,30.14,ESE,108,3.5,3.5,22,0.00,CLR,,0.00,WeatherDisplay:10.37,2013-02-20 00:03:00,
2013-02-19 18:08:00,57.5,18.9,30.14,East,79,4.6,4.6,22,0.00,CLR,,0.00,WeatherDisplay:10.37,2013-02-20 00:08:00,
2013-02-19 18:13:00,57.4,19.9,30.14,East,96,4.0,4.0,23,0.00,CLR,,0.00,WeatherDisplay:10.37,2013-02-20 00:13:00,
2013-02-19 18:18:00,57.2,20.7,30.14,SSE,157,5.0,5.0,24,0.00,CLR,,0.00,WeatherDisplay:10.37,2013-02-20 00:18:00,
2013-02-19 18:23:00,57.0,20.5,30.14,ESE,120,3.5,3.5,24,0.00,CLR,,0.00,WeatherDisplay:10.37,2013-02-20 00:23:00,
2013-02-19 18:28:00,56.9,20.4,30.14,ESE,110,3.5,3.5,24,0.00,CLR,,0.00,WeatherDisplay:10.37,2013-02-20 00:28:00,
2013-02-19 18:33:00,56.8,21.3,30.14,East,91,2.3,2.3,25,0.00,CLR,,0.00,WeatherDisplay:10.37,2013-02-20 00:33:00,
2013-02-19 18:38:00,56.6,21.1,30.14,East,86,4.0,4.0,25,0.00,CLR,,0.00,WeatherDisplay:10.37,2013-02-20 00:38:00,
2013-02-19 18:43:00,56.5,20.1,30.14,ESE,111,8.1,8.1,24,0.00,CLR,,0.00,WeatherDisplay:10.37,2013-02-20 00:43:00,
2013-02-19 18:48:00,56.5,20.1,30.14,SE,142,5.8,5.8,24,0.00,CLR,,0.00,WeatherDisplay:10.37,2013-02-20 00:48:00,
2013-02-19 18:53:00,56.4,20.0,30.14,SSE,156,3.5,3.5,24,0.00,CLR,,0.00,WeatherDisplay:10.37,2013-02-20 00:53:00,
2013-02-19 18:58:00,56.3,19.9,30.14,ENE,68,3.5,3.5,24,0.00,CLR,,0.00,WeatherDisplay:10.37,2013-02-20 00:58:00,
2013-02-19 19:03:00,56.2,19.8,30.14,ESE,120,1.2,1.5,24,0.00,CLR,,0.00,WeatherDisplay:10.37,2013-02-20 01:03:00,
2013-02-19 19:08:00,56.0,20.6,30.14,SSE,153,4.6,4.6,25,0.00,CLR,,0.00,WeatherDisplay:10.37,2013-02-20 01:08:00,
2013-02-19 19:13:00,56.0,20.6,30.14,ENE,76,4.6,4.6,25,0.00,CLR,,0.00,WeatherDisplay:10.37,2013-02-20 01:13:00,
2013-02-19 19:18:00,55.9,19.6,30.14,East,90,2.3,2.3,24,0.00,CLR,,0.00,WeatherDisplay:10.37,2013-02-20 01:18:00,
2013-02-19 19:23:00,55.8,20.5,30.14,East,98,1.2,0.0,25,0.00,CLR,,0.00,WeatherDisplay:10.37,2013-02-20 01:23:00,
2013-02-19 19:28:00,55.8,20.5,30.14,East,89,3.5,3.5,25,0.00,CLR,,0.00,WeatherDisplay:10.37,2013-02-20 01:28:00,
2013-02-19 19:33:00,55.7,20.4,30.14,South,172,3.5,3.5,25,0.00,CLR,,0.00,WeatherDisplay:10.37,2013-02-20 01:33:00,
2013-02-19 19:38:00,55.7,20.4,30.14,East,91,4.6,4.6,25,0.00,CLR,,0.00,WeatherDisplay:10.37,2013-02-20 01:38:00,
2013-02-19 19:43:00,55.7,20.4,30.15,SE,125,3.5,3.5,25,0.00,CLR,,0.00,WeatherDisplay:10.37,2013-02-20 01:43:00,
2013-02-19 19:48:00,55.6,20.3,30.14,East,92,1.2,1.6,25,0.00,CLR,,0.00,WeatherDisplay:10.37,2013-02-20 01:48:00,
2013-02-19 19:53:00,55.6,21.2,30.14,ESE,105,4.6,4.6,26,0.00,CLR,,0.00,WeatherDisplay:10.37,2013-02-20 01:53:00,
2013-02-19 19:58:00,55.6,21.2,30.15,SE,128,3.5,3.5,26,0.00,CLR,,0.00,WeatherDisplay:10.37,2013-02-20 01:58:00,
2013-02-19 20:03:00,55.7,21.3,30.15,East,93,4.0,4.0,26,0.00,CLR,,0.00,WeatherDisplay:10.37,2013-02-20 02:03:00,
2013-02-19 20:08:00,55.6,22.1,30.15,East,94,2.3,2.3,27,0.00,OVC,,0.00,WeatherDisplay:10.37,2013-02-20 02:08:00,
2013-02-19 20:13:00,55.5,23.7,30.15,ESE,117,3.5,3.5,29,0.00,OVC,,0.00,WeatherDisplay:10.37,2013-02-20 02:13:00,
2013-02-19 20:18:00,55.2,24.3,30.15,East,98,2.3,2.3,30,0.00,OVC,,0.00,WeatherDisplay:10.37,2013-02-20 02:18:00,
2013-02-19 20:23:00,54.8,26.2,30.15,ESE,123,3.5,3.5,33,0.00,OVC,,0.00,WeatherDisplay:10.37,2013-02-20 02:23:00,
2013-02-19 20:28:00,54.5,26.7,30.16,SE,129,2.3,2.3,34,0.00,OVC,,0.00,WeatherDisplay:10.37,2013-02-20 02:28:00,
2013-02-19 20:33:00,54.1,28.4,30.16,ESE,107,0.0,0.1,37,0.00,OVC,,0.00,WeatherDisplay:10.37,2013-02-20 02:33:00,
2013-02-19 20:38:00,53.6,31.0,30.17,SE,140,0.0,0.0,42,0.00,OVC,,0.00,WeatherDisplay:10.37,2013-02-20 02:38:00,
2013-02-19 20:43:00,53.0,32.2,30.17,SSE,153,1.2,0.0,45,0.00,OVC,,0.00,WeatherDisplay:10.37,2013-02-20 02:43:00,
2013-02-19 20:48:00,52.4,32.2,30.17,SE,141,1.2,1.2,46,0.01,RA,,0.01,WeatherDisplay:10.37,2013-02-20 02:48:00,
2013-02-19 20:53:00,51.8,35.2,30.17,SE,139,0.0,0.0,53,0.01,RA,,0.01,WeatherDisplay:10.37,2013-02-20 02:53:00,
2013-02-19 20:58:00,51.1,35.0,30.17,SE,139,0.0,0.0,54,0.01,OVC,,0.01,WeatherDisplay:10.37,2013-02-20 02:58:00,
2013-02-19 21:03:00,50.7,35.6,30.17,SE,139,1.0,0.0,56,0.01,OVC,,0.01,WeatherDisplay:10.37,2013-02-20 03:03:00,
2013-02-19 21:08:00,50.5,37.5,30.17,SE,139,1.2,0.0,61,0.02,-RA,,0.02,WeatherDisplay:10.37,2013-02-20 03:08:00,
2013-02-19 21:13:00,50.0,36.2,30.16,ENE,76,0.0,0.1,59,0.02,-RA,,0.02,WeatherDisplay:10.37,2013-02-20 03:13:00,
2013-02-19 21:18:00,49.8,35.2,30.16,East,80,1.2,1.2,57,0.02,-RA,,0.02,WeatherDisplay:10.37,2013-02-20 03:18:00,
2013-02-19 21:23:00,49.9,34.8,30.16,East,91,2.3,2.3,56,0.02,-RA,,0.02,WeatherDisplay:10.37,2013-02-20 03:23:00,
2013-02-19 21:28:00,50.0,34.5,30.15,East,94,3.5,3.5,55,0.02,-RA,,0.02,WeatherDisplay:10.37,2013-02-20 03:28:00,
2013-02-19 21:33:00,50.0,35.4,30.14,East,94,3.5,3.5,57,0.02,-RA,,0.02,WeatherDisplay:10.37,2013-02-20 03:33:00,
2013-02-19 21:38:00,49.9,35.3,30.14,NE,56,4.6,4.6,57,0.02,-RA,,0.02,WeatherDisplay:10.37,2013-02-20 03:38:00,
2013-02-19 21:43:00,49.9,36.1,30.13,East,92,2.3,2.4,59,0.02,-RA,,0.02,WeatherDisplay:10.37,2013-02-20 03:43:00,
2013-02-19 21:48:00,50.0,36.7,30.13,East,86,5.8,5.8,60,0.01,-RA,,0.02,WeatherDisplay:10.37,2013-02-20 03:48:00,
2013-02-19 21:53:00,50.1,35.9,30.13,East,85,3.5,3.5,58,0.01,-RA,,0.02,WeatherDisplay:10.37,2013-02-20 03:53:00,
2013-02-19 21:58:00,50.3,34.3,30.13,East,89,3.5,3.5,54,0.01,-RA,,0.02,WeatherDisplay:10.37,2013-02-20 03:58:00,
2013-02-19 22:03:00,50.5,33.0,30.13,East,82,5.8,5.8,51,0.01,-RA,,0.02,WeatherDisplay:10.37,2013-02-20 04:03:00,
2013-02-19 22:08:00,50.7,34.2,30.14,ESE,120,1.0,1.0,53,0.00,-RA,,0.02,WeatherDisplay:10.37,2013-02-20 04:08:00,
2013-02-19 22:13:00,50.7,33.2,30.14,East,84,2.3,2.3,51,0.00,-RA,,0.02,WeatherDisplay:10.37,2013-02-20 04:13:00,
2013-02-19 22:18:00,50.8,32.8,30.14,East,83,3.5,3.5,50,0.00,-RA,,0.02,WeatherDisplay:10.37,2013-02-20 04:18:00,
2013-02-19 22:23:00,50.9,32.9,30.14,ESE,107,2.0,2.0,50,0.00,-RA,,0.02,WeatherDisplay:10.37,2013-02-20 04:23:00,
2013-02-19 22:28:00,50.9,32.9,30.14,ESE,120,2.3,2.3,50,0.00,-RA,,0.02,WeatherDisplay:10.37,2013-02-20 04:28:00,
2013-02-19 22:33:00,50.9,33.4,30.13,ENE,71,3.5,3.5,51,0.00,-RA,,0.02,WeatherDisplay:10.37,2013-02-20 04:33:00,
2013-02-19 22:38:00,50.9,32.9,30.13,East,101,3.0,3.0,50,0.00,-RA,,0.02,WeatherDisplay:10.37,2013-02-20 04:38:00,
2013-02-19 22:43:00,50.9,32.9,30.13,ENE,69,3.5,3.5,50,0.00,-RA,,0.02,WeatherDisplay:10.37,2013-02-20 04:43:00,
2013-02-19 22:48:00,51.1,32.6,30.13,ENE,68,2.3,2.3,49,0.00,-RA,,0.02,WeatherDisplay:10.37,2013-02-20 04:48:00,
2013-02-19 22:53:00,51.1,32.6,30.12,East,90,4.6,4.6,49,0.00,-RA,,0.02,WeatherDisplay:10.37,2013-02-20 04:53:00,
2013-02-19 22:58:00,51.2,32.2,30.13,ESE,102,2.3,2.3,48,0.00,-RA,,0.02,WeatherDisplay:10.37,2013-02-20 04:58:00,
2013-02-19 23:00:00,51.2,32.2,30.13,East,95,1.0,4.0,48,0.00,-RA,-RA,0.02,WeatherDisplay:10.37,2013-02-20 05:00:00,
2013-02-19 23:01:00,51.2,32.2,30.13,South,173,1.2,1.2,48,0.00,-RA,,0.02,WeatherDisplay:10.37,2013-02-20 05:01:00,
2013-02-19 23:06:00,51.2,32.2,30.13,ENE,74,0.0,0.0,48,0.00,OVC,,0.02,WeatherDisplay:10.37,2013-02-20 05:06:00,
2013-02-19 23:11:00,51.1,32.1,30.13,East,85,1.2,1.2,48,0.00,OVC,,0.02,WeatherDisplay:10.37,2013-02-20 05:11:00,
2013-02-19 23:16:00,51.1,32.1,30.14,ESE,105,0.0,0.0,48,0.00,OVC,,0.02,WeatherDisplay:10.37,2013-02-20 05:16:00,
2013-02-19 23:21:00,51.0,33.0,30.14,SE,131,0.0,0.0,50,0.00,OVC,,0.02,WeatherDisplay:10.37,2013-02-20 05:21:00,
2013-02-19 23:26:00,51.0,32.5,30.14,ENE,66,2.3,2.3,49,0.00,OVC,,0.02,WeatherDisplay:10.37,2013-02-20 05:26:00,
2013-02-19 23:31:00,51.1,32.1,30.14,East,79,2.3,2.3,48,0.00,OVC,,0.02,WeatherDisplay:10.37,2013-02-20 05:31:00,
2013-02-19 23:36:00,51.2,32.7,30.14,East,80,1.2,0.0,49,0.00,OVC,,0.02,WeatherDisplay:10.37,2013-02-20 05:36:00,
2013-02-19 23:41:00,51.2,32.7,30.13,East,86,1.2,0.0,49,0.00,OVC,,0.02,WeatherDisplay:10.37,2013-02-20 05:41:00,
2013-02-19 23:46:00,51.1,33.1,30.13,East,92,3.5,3.5,50,0.00,OVC,,0.02,WeatherDisplay:10.37,2013-02-20 05:46:00,
2013-02-19 23:51:00,51.1,33.6,30.13,East,81,1.2,1.2,51,0.00,OVC,,0.02,WeatherDisplay:10.37,2013-02-20 05:51:00,
2013-02-19 23:56:00,51.0,33.0,30.14,ENE,61,4.0,4.0,50,0.00,OVC,,0.02,WeatherDisplay:10.37,2013-02-20 05:56:00,